ACA350 CYYZ-CYYG

Flight info

Callsign ACA350
Flight time 1h 49m
Altitude 35000
Route DEDKI5 OLABA Q951 TALNO Q929 TOXAL DCT DANOL Q951 IKURO
Aircraft A321/M-SDE3FGHIRWY/LB1

Departure

Time 2026-05-03 21:44
Airport Toronto Pearson International Airport (CYYZ)

Arrival

Time 2026-05-03 23:33
Airport Charlottetown Airport (CYYG)
Time Latitude Longitude Altitude Speed Heading
2026-05-03 20:49 43.68258 -79.61934 572 ft 0 kts 282°
2026-05-03 21:33 43.68255 -79.61916 573 ft 3 kts 280°
2026-05-03 21:33 43.68252 -79.61886 568 ft 3 kts 276°
2026-05-03 21:34 43.68250 -79.61855 571 ft 3 kts 271°
2026-05-03 21:34 43.68251 -79.61825 572 ft 3 kts 261°
2026-05-03 21:34 43.68254 -79.61802 573 ft 1 kts 253°
2026-05-03 21:34 43.68255 -79.61798 574 ft 0 kts 253°
2026-05-03 21:37 43.68254 -79.61802 573 ft 3 kts 251°
2026-05-03 21:37 43.68225 -79.61821 573 ft 4 kts 183°
2026-05-03 21:37 43.68191 -79.61816 569 ft 4 kts 175°
2026-05-03 21:38 43.68149 -79.61832 566 ft 9 kts 211°
2026-05-03 21:38 43.68106 -79.61888 573 ft 7 kts 227°
2026-05-03 21:38 43.68081 -79.61927 570 ft 5 kts 227°
2026-05-03 21:38 43.68041 -79.61975 569 ft 12 kts 207°
2026-05-03 21:39 43.67969 -79.62024 565 ft 12 kts 227°
2026-05-03 21:39 43.67994 -79.62131 563 ft 12 kts 316°
2026-05-03 21:39 43.68066 -79.62227 570 ft 19 kts 316°
2026-05-03 21:39 43.68164 -79.62355 574 ft 17 kts 318°
2026-05-03 21:40 43.68246 -79.62453 567 ft 18 kts 322°
2026-05-03 21:40 43.68355 -79.62589 568 ft 21 kts 316°
2026-05-03 21:40 43.68463 -79.62732 565 ft 25 kts 317°
2026-05-03 21:40 43.68585 -79.62890 563 ft 23 kts 316°
2026-05-03 21:41 43.68710 -79.63053 566 ft 25 kts 317°
2026-05-03 21:41 43.68825 -79.63204 567 ft 22 kts 316°
2026-05-03 21:41 43.68942 -79.63355 567 ft 22 kts 317°
2026-05-03 21:41 43.69048 -79.63496 566 ft 20 kts 314°
2026-05-03 21:42 43.69125 -79.63517 567 ft 7 kts 53°
2026-05-03 21:42 43.69173 -79.63451 572 ft 15 kts 40°
2026-05-03 21:42 43.69276 -79.63419 562 ft 16 kts
2026-05-03 21:42 43.69379 -79.63453 558 ft 16 kts 316°
2026-05-03 21:43 43.69372 -79.63564 565 ft 2 kts 227°
2026-05-03 21:43 43.69368 -79.63570 567 ft 9 kts 226°
2026-05-03 21:43 43.69125 -79.63924 571 ft 91 kts 226°
2026-05-03 21:44 43.68523 -79.64803 577 ft 156 kts 227°
2026-05-03 21:44 43.67727 -79.65995 1035 ft 177 kts 228°
2026-05-03 21:44 43.66875 -79.67292 1819 ft 185 kts 228°
2026-05-03 21:44 43.66073 -79.68651 2644 ft 179 kts 239°
2026-05-03 21:45 43.65368 -79.70109 2875 ft 189 kts 241°
2026-05-03 21:45 43.64874 -79.71153 3005 ft 196 kts 241°
2026-05-03 21:45 43.64093 -79.72793 3178 ft 218 kts 241°
2026-05-03 21:45 43.63239 -79.74604 3705 ft 229 kts 241°
2026-05-03 21:46 43.62355 -79.76461 4458 ft 233 kts 241°
2026-05-03 21:46 43.61265 -79.78163 5233 ft 245 kts 223°
2026-05-03 21:46 43.59626 -79.79041 6003 ft 268 kts 193°
2026-05-03 21:46 43.57718 -79.78559 6697 ft 295 kts 160°
2026-05-03 21:47 43.56123 -79.76658 7338 ft 314 kts 130°
2026-05-03 21:47 43.54971 -79.74060 8027 ft 321 kts 118°
2026-05-03 21:47 43.54046 -79.71230 8711 ft 326 kts 114°
2026-05-03 21:47 43.53201 -79.68298 9381 ft 331 kts 112°
2026-05-03 21:48 43.52346 -79.65330 10018 ft 335 kts 113°
2026-05-03 21:48 43.51556 -79.62229 10321 ft 353 kts 103°
2026-05-03 21:48 43.51151 -79.58796 10441 ft 374 kts 92°
2026-05-03 21:48 43.51188 -79.55154 10711 ft 386 kts 81°
2026-05-03 21:49 43.51688 -79.51520 11290 ft 387 kts 70°
2026-05-03 21:49 43.52377 -79.47927 11976 ft 388 kts 71°
2026-05-03 21:49 43.53059 -79.44315 12679 ft 390 kts 71°
2026-05-03 21:49 43.53756 -79.40693 13396 ft 392 kts 70°
2026-05-03 21:50 43.54524 -79.37064 13964 ft 396 kts 69°
2026-05-03 21:50 43.55345 -79.33426 14525 ft 398 kts 68°
2026-05-03 21:50 43.56191 -79.29775 15106 ft 401 kts 68°
2026-05-03 21:50 43.57045 -79.26101 15686 ft 403 kts 68°
2026-05-03 21:51 43.57894 -79.22402 16251 ft 406 kts 69°
2026-05-03 21:51 43.58740 -79.18665 16816 ft 409 kts 69°
2026-05-03 21:51 43.59579 -79.14899 17366 ft 412 kts 69°
2026-05-03 21:51 43.60414 -79.11114 17938 ft 415 kts 69°
2026-05-03 21:52 43.61245 -79.07341 18432 ft 417 kts 69°
2026-05-03 21:52 43.62089 -79.03499 18918 ft 419 kts 69°
2026-05-03 21:52 43.62938 -78.99640 19404 ft 421 kts 69°
2026-05-03 21:52 43.63792 -78.95761 19865 ft 423 kts 69°
2026-05-03 21:53 43.64650 -78.91855 20316 ft 426 kts 69°
2026-05-03 21:53 43.65512 -78.87938 20785 ft 428 kts 69°
2026-05-03 21:53 43.66380 -78.83994 21239 ft 431 kts 69°
2026-05-03 21:53 43.67251 -78.80020 21697 ft 433 kts 69°
2026-05-03 21:54 43.68123 -78.76023 22130 ft 436 kts 69°
2026-05-03 21:54 43.69019 -78.72008 22556 ft 438 kts 66°
2026-05-03 21:54 43.70172 -78.68122 22972 ft 438 kts 62°
2026-05-03 21:54 43.71375 -78.64237 23421 ft 440 kts 62°
2026-05-03 21:55 43.72583 -78.60341 23782 ft 442 kts 62°
2026-05-03 21:55 43.73794 -78.56422 24140 ft 444 kts 62°
2026-05-03 21:55 43.75009 -78.52477 24498 ft 446 kts 63°
2026-05-03 21:55 43.76226 -78.48514 24863 ft 448 kts 63°
2026-05-03 21:56 43.77445 -78.44528 25194 ft 451 kts 63°
2026-05-03 21:56 43.78666 -78.40522 25542 ft 453 kts 63°
2026-05-03 21:56 43.79889 -78.36501 25881 ft 455 kts 63°
2026-05-03 21:56 43.81118 -78.32460 26220 ft 457 kts 63°
2026-05-03 21:57 43.82353 -78.28400 26562 ft 459 kts 63°
2026-05-03 21:57 43.83597 -78.24313 26878 ft 461 kts 63°
2026-05-03 21:57 43.84840 -78.20210 27205 ft 463 kts 63°
2026-05-03 21:57 43.86085 -78.16092 27520 ft 465 kts 64°
2026-05-03 21:58 43.87336 -78.11944 27832 ft 467 kts 64°
2026-05-03 21:58 43.88573 -78.07829 28139 ft 469 kts 64°
2026-05-03 21:58 43.89827 -78.03650 28433 ft 471 kts 64°
2026-05-03 21:58 43.91090 -77.99450 28718 ft 472 kts 64°
2026-05-03 21:59 43.92358 -77.95238 29029 ft 474 kts 64°
2026-05-03 21:59 43.93631 -77.91000 29317 ft 476 kts 64°
2026-05-03 21:59 43.94903 -77.86745 29602 ft 478 kts 64°
2026-05-03 21:59 43.96177 -77.82480 29957 ft 478 kts 64°
2026-05-03 22:00 43.97448 -77.78224 30297 ft 477 kts 64°
2026-05-03 22:00 43.98718 -77.73977 30604 ft 477 kts 64°
2026-05-03 22:00 43.99986 -77.69715 30900 ft 477 kts 64°
2026-05-03 22:00 44.01250 -77.65449 31207 ft 477 kts 64°
2026-05-03 22:01 44.02512 -77.61183 31511 ft 478 kts 64°
2026-05-03 22:01 44.03772 -77.56907 31836 ft 478 kts 64°
2026-05-03 22:01 44.05029 -77.52634 32146 ft 478 kts 64°
2026-05-03 22:01 44.06285 -77.48353 32434 ft 478 kts 64°
2026-05-03 22:02 44.07542 -77.44070 32716 ft 479 kts 64°
2026-05-03 22:02 44.08828 -77.39808 32981 ft 479 kts 63°
2026-05-03 22:02 44.10188 -77.35584 33237 ft 479 kts 62°
2026-05-03 22:02 44.11602 -77.31388 33507 ft 479 kts 61°
2026-05-03 22:03 44.13039 -77.27196 33764 ft 480 kts 61°
2026-05-03 22:03 44.14455 -77.23055 33979 ft 480 kts 62°
2026-05-03 22:03 44.15897 -77.18794 34201 ft 481 kts 62°
2026-05-03 22:03 44.17283 -77.14625 34397 ft 481 kts 62°
2026-05-03 22:04 44.18689 -77.10329 34601 ft 481 kts 63°
2026-05-03 22:04 44.20071 -77.06074 34802 ft 482 kts 63°
2026-05-03 22:04 44.22828 -76.97570 34898 ft 480 kts 63°
2026-05-03 22:05 44.25553 -76.89161 34898 ft 478 kts 63°
2026-05-03 22:05 44.28321 -76.80657 34885 ft 478 kts 63°
2026-05-03 22:06 44.31064 -76.72203 34894 ft 478 kts 63°
2026-05-03 22:06 44.33798 -76.63732 34895 ft 478 kts 63°
2026-05-03 22:07 44.36503 -76.55315 34892 ft 478 kts 63°
2026-05-03 22:07 44.39222 -76.46826 34907 ft 478 kts 63°
2026-05-03 22:08 44.41934 -76.38315 34900 ft 478 kts 63°
2026-05-03 22:08 44.44635 -76.29813 34894 ft 478 kts 63°
2026-05-03 22:09 44.47340 -76.21295 34886 ft 478 kts 63°
2026-05-03 22:10 44.51387 -76.08489 34886 ft 479 kts 64°
2026-05-03 22:10 44.54062 -75.99943 34880 ft 479 kts 64°
2026-05-03 22:11 44.56711 -75.91442 34885 ft 479 kts 64°
2026-05-03 22:11 44.59382 -75.82878 34865 ft 479 kts 64°
2026-05-03 22:12 44.62053 -75.74303 34855 ft 479 kts 64°
2026-05-03 22:12 44.64699 -75.65729 34848 ft 479 kts 64°
2026-05-03 22:13 44.67202 -75.57068 34854 ft 479 kts 67°
2026-05-03 22:13 44.69530 -75.48284 34848 ft 479 kts 68°
2026-05-03 22:14 44.71845 -75.39512 34850 ft 478 kts 67°
2026-05-03 22:14 44.74263 -75.30811 34854 ft 477 kts 65°
2026-05-03 22:15 44.76850 -75.22209 34858 ft 477 kts 64°
2026-05-03 22:15 44.79439 -75.13612 34868 ft 477 kts 65°
2026-05-03 22:16 44.81978 -75.04984 34879 ft 477 kts 65°
2026-05-03 22:16 44.84483 -74.96325 34874 ft 477 kts 66°
2026-05-03 22:17 44.86965 -74.87736 34865 ft 476 kts 66°
2026-05-03 22:17 44.89462 -74.79088 34862 ft 476 kts 66°
2026-05-03 22:18 44.91917 -74.70428 34863 ft 476 kts 68°
2026-05-03 22:18 44.93984 -74.61532 34869 ft 477 kts 72°
2026-05-03 22:19 44.95806 -74.52522 34853 ft 477 kts 73°
2026-05-03 22:19 44.97656 -74.43515 34843 ft 477 kts 72°
2026-05-03 22:20 44.99585 -74.34548 34838 ft 478 kts 72°
2026-05-03 22:20 45.01381 -74.25489 34832 ft 478 kts 74°
2026-05-03 22:21 45.03018 -74.16390 34835 ft 478 kts 75°
2026-05-03 22:21 45.04644 -74.07271 34836 ft 478 kts 75°
2026-05-03 22:22 45.06311 -73.98159 34843 ft 478 kts 74°
2026-05-03 22:22 45.07744 -73.89056 34838 ft 478 kts 84°
2026-05-03 22:23 45.08156 -73.79653 34834 ft 478 kts 86°
2026-05-03 22:23 45.08521 -73.70251 34833 ft 479 kts 86°
2026-05-03 22:24 45.08882 -73.60850 34837 ft 478 kts 87°
2026-05-03 22:24 45.09230 -73.51460 34843 ft 477 kts 87°
2026-05-03 22:25 45.09549 -73.42077 34846 ft 477 kts 87°
2026-05-03 22:25 45.09859 -73.32687 34850 ft 477 kts 87°
2026-05-03 22:26 45.10163 -73.23312 34838 ft 477 kts 87°
2026-05-03 22:26 45.10453 -73.13947 34850 ft 476 kts 88°
2026-05-03 22:27 45.10743 -73.04643 34862 ft 476 kts 88°
2026-05-03 22:27 45.11023 -72.95289 34864 ft 475 kts 88°
2026-05-03 22:28 45.11298 -72.85927 34858 ft 475 kts 88°
2026-05-03 22:28 45.11570 -72.76585 34859 ft 475 kts 88°
2026-05-03 22:29 45.11834 -72.67242 34861 ft 475 kts 88°
2026-05-03 22:29 45.12044 -72.59476 34861 ft 475 kts 88°
2026-05-03 22:30 45.12320 -72.48567 34858 ft 475 kts 88°
2026-05-03 22:30 45.12519 -72.40790 34850 ft 474 kts 88°
2026-05-03 22:31 45.12751 -72.31457 34855 ft 474 kts 88°
2026-05-03 22:31 45.12972 -72.22133 34857 ft 474 kts 89°
2026-05-03 22:32 45.13187 -72.12798 34862 ft 474 kts 89°
2026-05-03 22:32 45.13397 -72.03464 34850 ft 474 kts 89°
2026-05-03 22:33 45.13586 -71.94138 34854 ft 474 kts 89°
2026-05-03 22:33 45.13771 -71.84819 34854 ft 473 kts 89°
2026-05-03 22:34 45.13962 -71.75500 34851 ft 473 kts 89°
2026-05-03 22:34 45.14136 -71.66192 34846 ft 473 kts 89°
2026-05-03 22:35 45.14537 -71.56902 34834 ft 474 kts 80°
2026-05-03 22:35 45.15998 -71.47791 34836 ft 474 kts 77°
2026-05-03 22:36 45.17492 -71.38684 34840 ft 475 kts 78°
2026-05-03 22:36 45.18966 -71.29619 34838 ft 475 kts 78°
2026-05-03 22:37 45.20437 -71.20478 34835 ft 475 kts 78°
2026-05-03 22:37 45.21895 -71.11327 34821 ft 475 kts 78°
2026-05-03 22:38 45.23355 -71.02177 34837 ft 475 kts 78°
2026-05-03 22:38 45.24818 -70.93017 34816 ft 476 kts 78°
2026-05-03 22:39 45.26278 -70.83849 34815 ft 476 kts 78°
2026-05-03 22:39 45.27721 -70.74679 34808 ft 476 kts 78°
2026-05-03 22:40 45.29149 -70.65509 34801 ft 476 kts 79°
2026-05-03 22:40 45.30564 -70.56325 34798 ft 476 kts 79°
2026-05-03 22:41 45.31979 -70.47154 34796 ft 475 kts 79°
2026-05-03 22:41 45.33396 -70.37986 34789 ft 475 kts 79°
2026-05-03 22:42 45.34799 -70.28811 34784 ft 474 kts 79°
2026-05-03 22:42 45.36189 -70.19638 34767 ft 475 kts 79°
2026-05-03 22:43 45.37572 -70.10464 34752 ft 475 kts 79°
2026-05-03 22:43 45.38951 -70.01275 34750 ft 475 kts 79°
2026-05-03 22:44 45.40324 -69.92091 34760 ft 475 kts 79°
2026-05-03 22:44 45.41676 -69.82950 34741 ft 474 kts 79°
2026-05-03 22:45 45.43031 -69.73760 34753 ft 474 kts 79°
2026-05-03 22:45 45.44384 -69.64578 34731 ft 474 kts 79°
2026-05-03 22:46 45.45725 -69.55384 34735 ft 474 kts 79°
2026-05-03 22:46 45.47056 -69.46193 34721 ft 474 kts 80°
2026-05-03 22:47 45.48381 -69.36998 34720 ft 474 kts 79°
2026-05-03 22:47 45.49693 -69.27795 34718 ft 473 kts 80°
2026-05-03 22:48 45.51000 -69.18610 34725 ft 472 kts 80°
2026-05-03 22:48 45.52291 -69.09504 34726 ft 471 kts 80°
2026-05-03 22:49 45.53582 -69.00337 34723 ft 471 kts 80°
2026-05-03 22:49 45.54862 -68.91178 34720 ft 471 kts 80°
2026-05-03 22:50 45.56132 -68.82015 34705 ft 470 kts 81°
2026-05-03 22:50 45.57394 -68.72850 34705 ft 470 kts 81°
2026-05-03 22:51 45.58656 -68.63695 34712 ft 470 kts 81°
2026-05-03 22:51 45.59900 -68.54536 34715 ft 470 kts 81°
2026-05-03 22:52 45.61134 -68.45378 34720 ft 469 kts 81°
2026-05-03 22:52 45.62362 -68.36227 34715 ft 469 kts 81°
2026-05-03 22:53 45.63586 -68.27072 34720 ft 469 kts 81°
2026-05-03 22:53 45.64801 -68.17916 34716 ft 469 kts 81°
2026-05-03 22:54 45.66012 -68.08756 34716 ft 469 kts 82°
2026-05-03 22:54 45.67222 -67.99590 34713 ft 468 kts 82°
2026-05-03 22:55 45.68406 -67.90503 34706 ft 468 kts 82°
2026-05-03 22:55 45.69593 -67.81292 34702 ft 467 kts 82°
2026-05-03 22:56 45.71022 -67.72280 34704 ft 469 kts 77°
2026-05-03 22:56 45.72803 -67.63300 34694 ft 469 kts 76°
2026-05-03 22:57 45.74604 -67.54334 34693 ft 468 kts 77°
2026-05-03 22:57 45.76298 -67.45328 34670 ft 468 kts 78°
2026-05-03 22:58 45.77928 -67.36307 34669 ft 468 kts 78°
2026-05-03 22:58 45.79564 -67.27278 34671 ft 468 kts 78°
2026-05-03 22:59 45.81218 -67.18259 34660 ft 468 kts 78°
2026-05-03 22:59 45.82852 -67.09295 34661 ft 468 kts 78°
2026-05-03 23:00 45.84479 -67.00264 34650 ft 468 kts 78°
2026-05-03 23:00 45.86102 -66.91230 34642 ft 467 kts 79°
2026-05-03 23:01 45.87726 -66.82213 34644 ft 466 kts 78°
2026-05-03 23:01 45.89337 -66.73211 34647 ft 465 kts 79°
2026-05-03 23:02 45.90931 -66.64207 34630 ft 465 kts 79°
2026-05-03 23:02 45.92514 -66.55212 34612 ft 464 kts 79°
2026-05-03 23:03 45.94084 -66.46215 34610 ft 464 kts 79°
2026-05-03 23:03 45.95533 -66.37189 34595 ft 463 kts 82°
2026-05-03 23:04 45.96733 -66.28119 34607 ft 461 kts 83°
2026-05-03 23:04 45.97878 -66.19097 34598 ft 461 kts 84°
2026-05-03 23:05 45.98542 -66.09918 34404 ft 458 kts 89°
2026-05-03 23:05 45.98791 -66.05359 34161 ft 457 kts 89°
2026-05-03 23:05 45.99018 -66.00815 33939 ft 455 kts 89°
2026-05-03 23:05 45.99236 -65.96281 33699 ft 454 kts 89°
2026-05-03 23:06 45.99451 -65.91801 33463 ft 454 kts 89°
2026-05-03 23:06 45.99674 -65.87266 33167 ft 453 kts 89°
2026-05-03 23:06 45.99903 -65.82761 32911 ft 452 kts 89°
2026-05-03 23:06 46.00134 -65.78261 32644 ft 451 kts 89°
2026-05-03 23:07 46.00367 -65.73774 32381 ft 448 kts 89°
2026-05-03 23:07 46.00596 -65.69329 32103 ft 443 kts 89°
2026-05-03 23:07 46.00820 -65.64937 31842 ft 437 kts 89°
2026-05-03 23:07 46.01038 -65.60597 31585 ft 433 kts 89°
2026-05-03 23:08 46.01250 -65.56303 31334 ft 429 kts 89°
2026-05-03 23:08 46.01460 -65.52041 31083 ft 425 kts 89°
2026-05-03 23:08 46.01661 -65.47818 30808 ft 421 kts 88°
2026-05-03 23:08 46.01857 -65.43649 30563 ft 416 kts 88°
2026-05-03 23:09 46.02055 -65.39514 30213 ft 411 kts 88°
2026-05-03 23:09 46.02254 -65.35431 29710 ft 408 kts 88°
2026-05-03 23:09 46.02447 -65.31379 29145 ft 404 kts 88°
2026-05-03 23:09 46.02631 -65.27420 28665 ft 398 kts 88°
2026-05-03 23:10 46.02815 -65.23417 28173 ft 393 kts 88°
2026-05-03 23:10 46.02990 -65.19571 27701 ft 388 kts 88°
2026-05-03 23:10 46.03166 -65.15712 27232 ft 384 kts 88°
2026-05-03 23:10 46.03339 -65.11901 26758 ft 379 kts 88°
2026-05-03 23:11 46.03508 -65.08135 26304 ft 375 kts 89°
2026-05-03 23:11 46.03672 -65.04417 25877 ft 370 kts 89°
2026-05-03 23:11 46.03837 -65.00738 25446 ft 366 kts 89°
2026-05-03 23:11 46.03998 -64.97109 25031 ft 362 kts 89°
2026-05-03 23:12 46.04156 -64.93515 24603 ft 357 kts 89°
2026-05-03 23:12 46.04310 -64.89968 24199 ft 353 kts 89°
2026-05-03 23:12 46.04459 -64.86453 23801 ft 350 kts 89°
2026-05-03 23:12 46.04604 -64.82972 23407 ft 347 kts 89°
2026-05-03 23:13 46.04745 -64.79525 23003 ft 344 kts 89°
2026-05-03 23:13 46.04891 -64.76103 22557 ft 340 kts 89°
2026-05-03 23:13 46.05037 -64.72722 22173 ft 337 kts 89°
2026-05-03 23:13 46.05178 -64.69378 21791 ft 335 kts 89°
2026-05-03 23:14 46.05316 -64.66031 21361 ft 333 kts 89°
2026-05-03 23:14 46.05452 -64.62713 20967 ft 331 kts 89°
2026-05-03 23:14 46.05541 -64.60529 20706 ft 330 kts 90°
2026-05-03 23:14 46.05717 -64.56142 20188 ft 327 kts 90°
2026-05-03 23:15 46.05803 -64.53977 19927 ft 326 kts 90°
2026-05-03 23:15 46.05930 -64.50735 19540 ft 324 kts 91°
2026-05-03 23:15 46.06055 -64.47500 19153 ft 324 kts 90°
2026-05-03 23:15 46.06181 -64.44267 18763 ft 322 kts 91°
2026-05-03 23:16 46.06307 -64.41057 18371 ft 321 kts 91°
2026-05-03 23:16 46.06470 -64.36799 17857 ft 321 kts 90°
2026-05-03 23:16 46.06553 -64.34638 17575 ft 320 kts 91°
2026-05-03 23:16 46.06675 -64.31459 17173 ft 317 kts 91°
2026-05-03 23:17 46.06798 -64.28297 16794 ft 315 kts 90°
2026-05-03 23:17 46.06919 -64.25166 16418 ft 312 kts 92°
2026-05-03 23:17 46.07035 -64.22067 16039 ft 308 kts 90°
2026-05-03 23:17 46.07149 -64.19001 15676 ft 307 kts 90°
2026-05-03 23:18 46.07263 -64.15946 15314 ft 303 kts 90°
2026-05-03 23:18 46.07377 -64.12923 14948 ft 301 kts 91°
2026-05-03 23:18 46.07487 -64.09931 14601 ft 298 kts 91°
2026-05-03 23:18 46.07593 -64.06966 14247 ft 296 kts 91°
2026-05-03 23:19 46.07698 -64.04025 13876 ft 293 kts 91°
2026-05-03 23:19 46.07800 -64.01098 13522 ft 291 kts 92°
2026-05-03 23:19 46.07902 -63.98193 13155 ft 290 kts 92°
2026-05-03 23:19 46.08002 -63.95305 12774 ft 287 kts 92°
2026-05-03 23:20 46.08102 -63.92451 12414 ft 284 kts 90°
2026-05-03 23:20 46.08200 -63.89626 12061 ft 281 kts 91°
2026-05-03 23:20 46.08295 -63.86864 11697 ft 278 kts 90°
2026-05-03 23:20 46.08390 -63.84065 11343 ft 275 kts 89°
2026-05-03 23:21 46.08482 -63.81360 10997 ft 273 kts 89°
2026-05-03 23:21 46.08574 -63.78645 10653 ft 270 kts 88°
2026-05-03 23:21 46.08664 -63.75968 10296 ft 262 kts 88°
2026-05-03 23:21 46.08750 -63.73386 10051 ft 258 kts 88°
2026-05-03 23:22 46.08921 -63.68111 8591 ft 273 kts 91°
2026-05-03 23:22 46.09008 -63.65339 7301 ft 280 kts 89°
2026-05-03 23:22 46.09095 -63.62552 6502 ft 272 kts 87°
2026-05-03 23:23 46.09175 -63.59975 6350 ft 243 kts 87°
2026-05-03 23:23 46.09250 -63.57601 6231 ft 235 kts 87°
2026-05-03 23:23 46.09324 -63.55258 6103 ft 232 kts 86°
2026-05-03 23:23 46.09396 -63.52935 5976 ft 232 kts 86°
2026-05-03 23:24 46.09464 -63.50622 5832 ft 230 kts 86°
2026-05-03 23:24 46.09531 -63.48332 5697 ft 228 kts 86°
2026-05-03 23:24 46.09601 -63.46039 5564 ft 230 kts 85°
2026-05-03 23:24 46.09674 -63.43734 5428 ft 229 kts 85°
2026-05-03 23:25 46.09746 -63.41444 5288 ft 228 kts 85°
2026-05-03 23:25 46.09815 -63.39163 5151 ft 228 kts 85°
2026-05-03 23:25 46.09881 -63.36913 4982 ft 229 kts 85°
2026-05-03 23:25 46.09947 -63.34623 4659 ft 227 kts 84°
2026-05-03 23:26 46.10013 -63.32355 4299 ft 225 kts 84°
2026-05-03 23:26 46.10077 -63.30112 3939 ft 222 kts 84°
2026-05-03 23:26 46.10136 -63.27957 3866 ft 208 kts 84°
2026-05-03 23:26 46.10192 -63.25937 3801 ft 195 kts 83°
2026-05-03 23:27 46.10241 -63.24046 3742 ft 182 kts 84°
2026-05-03 23:27 46.10289 -63.22284 3687 ft 171 kts 85°
2026-05-03 23:27 46.10339 -63.20621 3597 ft 159 kts 85°
2026-05-03 23:27 46.10384 -63.19130 3519 ft 140 kts 83°
2026-05-03 23:28 46.10654 -63.17835 3460 ft 134 kts 63°
2026-05-03 23:28 46.11277 -63.16830 3422 ft 137 kts 44°
2026-05-03 23:28 46.12163 -63.16293 3426 ft 141 kts 24°
2026-05-03 23:28 46.13128 -63.16080 3283 ft 138 kts 23°
2026-05-03 23:29 46.14065 -63.15869 3097 ft 135 kts 23°
2026-05-03 23:29 46.14985 -63.15662 2913 ft 131 kts 23°
2026-05-03 23:29 46.15890 -63.15457 2732 ft 133 kts 23°
2026-05-03 23:29 46.16785 -63.15257 2550 ft 128 kts 20°
2026-05-03 23:30 46.17655 -63.15061 2368 ft 126 kts 21°
2026-05-03 23:30 46.18519 -63.14866 2190 ft 126 kts 20°
2026-05-03 23:30 46.19380 -63.14671 1967 ft 127 kts 18°
2026-05-03 23:30 46.20254 -63.14474 1792 ft 127 kts 17°
2026-05-03 23:31 46.21143 -63.14273 1603 ft 129 kts 18°
2026-05-03 23:31 46.22030 -63.14074 1425 ft 128 kts 16°
2026-05-03 23:31 46.22907 -63.13878 1247 ft 127 kts 15°
2026-05-03 23:31 46.23778 -63.13682 1061 ft 126 kts 15°
2026-05-03 23:32 46.24652 -63.13484 853 ft 128 kts 11°
2026-05-03 23:32 46.25541 -63.13284 676 ft 130 kts
2026-05-03 23:32 46.26431 -63.13083 492 ft 131 kts
2026-05-03 23:32 46.27307 -63.12889 292 ft 126 kts
2026-05-03 23:33 46.28180 -63.12689 138 ft 124 kts
2026-05-03 23:33 46.28885 -63.12535 125 ft 66 kts
2026-05-03 23:33 46.29102 -63.12486 124 ft 12 kts 11°
2026-05-03 23:33 46.29159 -63.12451 124 ft 7 kts 28°
2026-05-03 23:34 46.29164 -63.12466 126 ft 4 kts 220°
2026-05-03 23:34 46.29103 -63.12486 124 ft 15 kts 187°
2026-05-03 23:34 46.28984 -63.12512 121 ft 16 kts 188°
2026-05-03 23:34 46.28886 -63.12532 125 ft 12 kts 188°
2026-05-03 23:35 46.28803 -63.12551 124 ft 14 kts 189°
2026-05-03 23:35 46.28691 -63.12574 123 ft 16 kts 189°
2026-05-03 23:35 46.28645 -63.12657 123 ft 9 kts 278°
2026-05-03 23:35 46.28650 -63.12715 125 ft 3 kts 276°
2026-05-03 23:36 46.28652 -63.12739 125 ft 4 kts 278°
2026-05-03 23:36 46.28659 -63.12816 125 ft 11 kts 278°
2026-05-03 23:36 46.28659 -63.12917 123 ft 8 kts 238°
2026-05-03 23:36 46.28596 -63.12942 120 ft 9 kts 200°
2026-05-03 23:37 46.28584 -63.12997 125 ft 4 kts 273°
2026-05-03 23:37 46.28586 -63.13022 125 ft 3 kts 278°
2026-05-03 23:37 46.28587 -63.13035 125 ft 0 kts 279°
2026-05-03 23:37 46.28587 -63.13038 125 ft 0 kts 279°